Regional Weather Roundup
Issued by NWS

Home | Current Version | Previous Version | Graphics & Text | Print | Product List | Glossary On
Versions: 1 2 3 4 5 6 7 8 9 10 11 12 13 14 15 16 17 18 19 20 21 22 23 24 25 26 27 28
000
ASUS45 KCYS 280810
RWRWY

WYOMING REGIONAL WEATHER ROUNDUP
NATIONAL WEATHER SERVICE CHEYENNE WY
100 AM MST TUE FEB 28 2017

NOTE:  "FAIR" INDICATES FEW OR NO CLOUDS BELOW 12,000 FEET
WITH NO SIGNIFICANT WEATHER AND/OR OBSTRUCTIONS TO VISIBILITY.

WYZ001-280900-
YELLOWSTONE NATIONAL PARK

CITY           SKY/WX    TMP DP  RH WIND       PRES   REMARKS
LK YELLOWSTONE   N/A     -2  -5  87 CALM      29.63R
W YELLOWSTONE  NOT AVBL

$$
WYZ002>013-054>058-071-098>099-280900-
NORTHERN WYOMING

CITY           SKY/WX    TMP DP  RH WIND       PRES   REMARKS
JACKSON        CLOUDY    16  10  79 S12       29.69S WCI   3
CODY           FAIR      24   5  44 W10G17    29.63S WCI  14
GREYBULL       FAIR      25  19  78 W7        29.67R WCI  17
WORLAND        FAIR      21  18  88 CALM      29.66R
SHERIDAN       CLOUDY    22  19  89 W7        29.65R WCI  13
BUFFALO        FAIR      20  15  81 NW12      29.59S WCI   8
GILLETTE       FAIR      19  17  92 NW6       29.57R WCI  11
HULETT         LGT SNOW  28  21  74 CALM      29.59F
NEWCASTLE      FAIR      28  21  74 SE13      29.63S WCI  18

$$
WYZ014>020-022>026-101>103-280900-
CENTRAL WYOMING

CITY           SKY/WX    TMP DP  RH WIND       PRES   REMARKS
BIG PINEY      FAIR      -6  -9  86 CALM      29.73R
PINEDALE       FAIR      -9 -15  77 W6        29.72S WCI -23
DUBOIS         FAIR       9   0  66 N14G20    29.61F WCI  -8
LANDER         FAIR      16  -5  39 VRB5      29.66S WCI   9
RIVERTON       FAIR      13   0  56 W17       29.67R WCI  -4
CASPER         FAIR      19   5  54 SW18      29.66R WCI   4
DOUGLAS        FAIR      24  10  55 W16       29.65R WCI  11

$$
WYZ021-027>030-104>119-280900-
SOUTHERN WYOMING

CITY           SKY/WX    TMP DP  RH WIND       PRES   REMARKS
EVANSTON       FOG       12   8  84 SW6       29.73  VSB 1/2 WCI   3
FORT BRIDGER   PTSUNNY   12  11  95 SW10      29.77S WCI  -1
ROCK SPRINGS   MOCLDY    10   5  80 NW7       29.75R WCI  -1
DIXON          FLURRIES  20  17  88 CALM      29.79S
RAWLINS        MOCLDY    15   6  67 SW15      29.71F WCI   0
SARATOGA       CLOUDY    19  12  73 SW12      29.73S WCI   7
LARAMIE        FAIR      12   9  87 S8        29.68S WCI   0
CHEYENNE       FAIR      23  12  62 W15       29.70R WCI  10
TORRINGTON     FAIR      29  17  61 W20G26    29.68F WCI  16
PINE BLUFFS    CLOUDY    30  16  55 NW17G24   29.70R WCI  18

$$




USA.gov is the U.S. government's official web portal to all federal, state and local government web resources and services.